FW8691 Weather Reports


Display with metric or nautical units.
time (UTC)temp
F
wind
direction
speed
MPH
gust
MPH
rain 1hr
in
rain 24hr
in
rain mn
in
humidity
%
barometer
mb
20260504120243 81 219 0.0 0.0 0.00 0.00 0.00 94 1013.4
20260504110710 80 244 0.0 0.0 0.00 0.00 0.00 95 1012.8
20260504110206 80 237 0.0 0.0 0.00 0.00 0.00 95 1012.8
20260504100130 80 199 0.0 1.0 0.00 0.00 0.00 94 1012.7
20260504081523 81 306 1.0 1.0 0.00 0.00 0.00 92 1012.4
20260504081019 81 327 1.0 1.0 0.00 0.00 0.00 92 1012.4
20260504080515 80 137 1.0 1.0 0.00 0.00 0.00 92 1012.4
20260504050334 82 271 1.0 1.0 0.00 0.00 0.00 95 1014.4
20260504045831 82 273 1.0 1.0 0.00 0.00 0.00 95 1014.5
20260504045326 82 259 0.0 0.0 0.00 0.00 0.00 94 1014.3
20260504044823 82 251 0.0 0.0 0.00 0.00 0.00 94 1014.4
20260504044320 82 225 0.0 0.0 0.00 0.00 0.00 94 1014.4
20260504043817 82 244 1.0 1.0 0.00 0.00 0.00 94 1014.4
20260504043314 82 251 0.0 0.0 0.00 0.00 0.00 94 1014.4
20260504042812 82 250 0.0 1.0 0.00 0.00 0.00 94 1014.5
20260504042308 82 220 0.0 0.0 0.00 0.00 0.00 94 1014.4
20260504041805 82 245 0.0 1.0 0.00 0.00 0.00 94 1014.6
20260504041300 82 233 0.0 0.0 0.00 0.00 0.00 94 1014.8
20260504040757 82 227 0.0 0.0 0.00 0.00 0.00 94 1014.7
20260504040255 82 274 0.0 1.0 0.00 0.00 0.00 94 1014.8
20260504035750 82 242 0.0 0.0 0.00 0.00 0.00 94 1014.8
20260504035247 82 258 0.0 0.0 0.00 0.00 0.00 93 1014.9
20260504034745 82 245 0.0 0.0 0.00 0.00 0.00 93 1015.0
20260504034242 82 246 0.0 0.0 0.00 0.00 0.00 93 1014.8
20260504033740 82 258 0.0 0.0 0.00 0.00 0.00 93 1014.9
20260504033237 82 251 0.0 0.0 0.00 0.00 0.00 93 1014.7
20260504032734 82 258 0.0 0.0 0.00 0.00 0.00 93 1014.7
20260504032231 82 246 1.0 1.0 0.00 0.00 0.00 92 1014.9
20260504031727 82 257 1.0 1.0 0.00 0.00 0.00 92 1015.0
20260504031225 82 256 0.0 0.0 0.00 0.00 0.00 92 1014.8
20260504030721 82 162 1.0 1.0 0.00 0.00 0.00 91 1014.8
20260504030218 82 259 0.0 0.0 0.00 0.00 0.00 91 1014.6
20260504025715 82 290 0.0 0.0 0.00 0.00 0.00 91 1014.9
20260504025211 82 241 0.0 0.0 0.00 0.00 0.00 91 1014.8
20260504024709 82 181 0.0 1.0 0.00 0.00 0.00 90 1014.8
20260504024205 82 167 0.0 1.0 0.00 0.00 0.00 90 1014.8
20260504023702 82 167 0.0 0.0 0.00 0.00 0.00 90 1014.7
20260504023158 83 167 0.0 0.0 0.00 0.00 0.00 90 1014.8
20260504022654 83 167 0.0 0.0 0.00 0.00 0.00 90 1014.7
20260504022150 82 167 0.0 0.0 0.00 0.00 0.00 90 1014.6
20260504021648 83 164 1.0 1.0 0.00 0.00 0.00 90 1014.5
20260504021145 83 179 0.0 0.0 0.00 0.00 0.00 90 1014.5
20260504020642 83 240 0.0 0.0 0.00 0.00 0.00 89 1014.4
20260504020137 83 177 0.0 0.0 0.00 0.00 0.00 89 1014.7
20260504015634 83 250 1.0 1.0 0.00 0.00 0.00 89 1014.6
20260504015131 83 290 1.0 1.0 0.00 0.00 0.00 89 1014.5
20260504014626 83 264 1.0 2.0 0.00 0.00 0.00 89 1014.4
20260504014124 83 236 0.0 1.0 0.00 0.00 0.00 89 1014.2
20260504013621 83 281 2.0 3.0 0.00 0.00 0.00 89 1014.4
20260504013118 83 310 3.0 4.0 0.00 0.00 0.00 89 1014.5
20260504012615 83 317 3.0 4.0 0.00 0.00 0.00 89 1014.4
20260504012113 84 343 2.0 2.0 0.00 0.00 0.00 89 1014.5
20260504011610 84 258 2.0 2.0 0.00 0.00 0.00 89 1014.3
20260504011106 84 215 2.0 3.0 0.00 0.00 0.00 89 1014.5
20260504010602 84 236 0.0 0.0 0.00 0.00 0.00 88 1014.3
20260504010058 84 292 1.0 2.0 0.00 0.00 0.00 88 1014.1
20260504005555 84 243 2.0 2.0 0.00 0.00 0.00 88 1013.9
20260504005052 84 223 0.0 1.0 0.00 0.00 0.00 89 1013.7
20260504004550 84 197 0.0 1.0 0.00 0.00 0.00 89 1013.6
20260504004047 84 269 0.0 1.0 0.00 0.00 0.00 88 1013.6
20260504003543 84 223 1.0 1.0 0.00 0.00 0.00 88 1013.5
20260504003040 84 227 0.0 0.0 0.00 0.00 0.00 88 1013.4
20260504002537 84 227 1.0 2.0 0.00 0.00 0.00 88 1013.3
20260504002034 84 232 0.0 1.0 0.00 0.00 0.00 88 1013.3
20260504001532 84 237 0.0 1.0 0.00 0.00 0.00 88 1013.2
20260504001027 84 240 0.0 0.0 0.00 0.00 0.00 88 1012.9
20260504000525 84 222 0.0 0.0 0.00 0.00 0.00 88 1012.8
20260504000023 84 239 0.0 1.0 0.00 0.00 0.00 87 1012.8
20260503235521 84 231 1.0 2.0 0.00 0.00 0.00 87 1012.9
20260503235017 85 225 1.0 1.0 0.00 0.00 0.00 86 1012.6
20260503234515 85 238 0.0 0.0 0.00 0.00 0.00 86 1012.5
20260503234013 85 227 0.0 1.0 0.00 0.00 0.00 86 1012.3
20260503233509 85 227 0.0 1.0 0.00 0.00 0.00 85 1012.4
20260503233005 86 231 0.0 0.0 0.00 0.00 0.00 84 1012.3
20260503232502 86 226 1.0 1.0 0.00 0.00 0.00 83 1012.2
20260503232000 87 239 1.0 2.0 0.00 0.00 0.00 82 1012.3
20260503231457 87 252 0.0 1.0 0.00 0.00 0.00 82 1011.9
20260503230954 87 216 0.0 1.0 0.00 0.00 0.00 81 1011.9
20260503230450 88 228 0.0 1.0 0.00 0.00 0.00 80 1011.8
20260503225948 89 217 1.0 2.0 0.00 0.00 0.00 79 1011.6
20260503225444 88 222 1.0 2.0 0.00 0.00 0.00 80 1011.8
20260503224940 88 229 0.0 1.0 0.00 0.00 0.00 80 1011.3
20260503224437 88 232 2.0 3.0 0.00 0.00 0.00 80 1011.5
20260503223935 88 175 0.0 0.0 0.00 0.00 0.00 80 1011.3
20260503223433 89 272 2.0 3.0 0.00 0.00 0.00 79 1011.3
20260503222928 89 237 0.0 0.0 0.00 0.00 0.00 79 1011.0
20260503222427 89 58 1.0 1.0 0.00 0.00 0.00 79 1011.2
20260503221925 89 188 1.0 1.0 0.00 0.00 0.00 79 1011.1
20260503221423 90 254 1.0 2.0 0.00 0.00 0.00 77 1011.1
20260503220919 89 241 0.0 1.0 0.00 0.00 0.00 78 1011.1
20260503220415 89 230 0.0 1.0 0.00 0.00 0.00 78 1011.2
20260503215913 89 234 0.0 0.0 0.00 0.00 0.00 79 1011.2
20260503215410 89 205 0.0 1.0 0.00 0.00 0.00 79 1011.3
20260503214907 89 249 1.0 2.0 0.00 0.00 0.00 79 1011.1
20260503214404 90 241 1.0 2.0 0.00 0.00 0.00 77 1011.3
20260503213902 89 268 1.0 1.0 0.00 0.00 0.00 79 1011.1
20260503213359 89 244 1.0 1.0 0.00 0.00 0.00 79 1011.2
20260503212856 89 244 2.0 3.0 0.00 0.00 0.00 78 1011.2
20260503212354 89 258 0.0 1.0 0.00 0.00 0.00 79 1011.3
20260503211851 89 253 2.0 3.0 0.00 0.00 0.00 79 1011.5
20260503211348 89 250 2.0 3.0 0.00 0.00 0.00 79 1011.2
20260503210842 91 298 4.0 6.0 0.00 0.00 0.00 76 1011.3
20260503210340 90 241 1.0 2.0 0.00 0.00 0.00 77 1011.4
20260503205835 90 236 0.0 1.0 0.00 0.00 0.00 76 1011.2
20260503205332 90 212 2.0 2.0 0.00 0.00 0.00 75 1011.4
20260503204828 90 220 4.0 6.0 0.00 0.00 0.00 76 1011.4
20260503204326 90 307 2.0 3.0 0.00 0.00 0.00 76 1011.3
20260503203823 90 274 1.0 1.0 0.00 0.00 0.00 79 1011.5
20260503203320 89 250 3.0 6.0 0.00 0.00 0.00 79 1011.5
20260503202817 89 246 5.0 7.0 0.00 0.00 0.00 79 1011.7
20260503202315 91 179 0.0 1.0 0.00 0.00 0.00 77 1011.9
20260503201813 91 231 2.0 3.0 0.00 0.00 0.00 77 1011.8
20260503201310 91 249 4.0 4.0 0.00 0.00 0.00 77 1011.9
20260503200808 91 246 1.0 3.0 0.00 0.00 0.00 75 1011.8
20260503200303 92 122 3.0 4.0 0.00 0.00 0.00 76 1011.9
20260503195801 92 34 1.0 2.0 0.00 0.00 0.00 76 1011.8
20260503195257 91 256 2.0 2.0 0.00 0.00 0.00 77 1012.1
20260503194754 90 195 1.0 1.0 0.00 0.00 0.00 79 1012.3
20260503194250 89 212 3.0 4.0 0.00 0.00 0.00 81 1012.4
20260503193746 88 214 3.0 3.0 0.00 0.00 0.00 82 1012.5
20260503193243 88 222 1.0 1.0 0.00 0.00 0.00 82 1012.7
20260503192738 87 96 0.0 1.0 0.00 0.00 0.00 83 1012.7
20260503192234 88 237 1.0 1.0 0.00 0.00 0.00 82 1013.0
20260503191731 88 234 1.0 2.0 0.00 0.00 0.00 81 1012.7
20260503191228 89 241 1.0 1.0 0.00 0.00 0.00 81 1012.6
20260503190725 89 206 2.0 2.0 0.00 0.00 0.00 80 1012.6
20260503190221 89 251 0.0 1.0 0.00 0.00 0.00 81 1012.7
20260503185719 89 238 3.0 4.0 0.00 0.00 0.00 81 1012.6
20260503185214 89 222 2.0 3.0 0.00 0.00 0.00 82 1012.7
20260503184709 89 239 4.0 4.0 0.00 0.00 0.00 81 1012.9
20260503184205 89 207 1.0 2.0 0.00 0.00 0.00 81 1012.6
20260503183702 89 269 1.0 2.0 0.00 0.00 0.00 81 1013.0
20260503183159 90 216 2.0 4.0 0.00 0.00 0.00 79 1013.0
20260503182657 90 256 2.0 3.0 0.00 0.00 0.00 79 1013.2
20260503182155 90 235 1.0 2.0 0.00 0.00 0.00 80 1013.1
20260503181652 90 253 2.0 3.0 0.00 0.00 0.00 79 1013.3
20260503181149 89 247 2.0 6.0 0.00 0.00 0.00 80 1013.3
20260503180646 88 243 1.0 1.0 0.00 0.00 0.00 80 1013.4
20260503180144 89 231 1.0 1.0 0.00 0.00 0.00 81 1013.5
20260503175640 88 249 1.0 2.0 0.00 0.00 0.00 81 1013.7
20260503175138 88 279 3.0 3.0 0.00 0.00 0.00 80 1013.5
20260503174634 89 109 1.0 2.0 0.00 0.00 0.00 80 1013.8
20260503174131 90 277 1.0 1.0 0.00 0.00 0.00 78 1013.7
20260503173626 90 243 1.0 1.0 0.00 0.00 0.00 78 1013.7
20260503173123 89 222 2.0 3.0 0.00 0.00 0.00 80 1014.0
20260503172620 89 262 1.0 1.0 0.00 0.00 0.00 80 1014.0
20260503172118 89 251 1.0 1.0 0.00 0.00 0.00 81 1014.1
20260503171614 89 222 2.0 2.0 0.00 0.00 0.00 79 1014.1
20260503171111 88 234 0.0 1.0 0.00 0.00 0.00 81 1014.0
20260503170608 88 240 0.0 0.0 0.00 0.00 0.00 81 1014.1
20260503170104 89 237 0.0 1.0 0.00 0.00 0.00 79 1014.1
20260503151000 87 218 1.0 1.0 0.00 0.00 0.00 81 1014.1
20260503150456 88 257 2.0 3.0 0.00 0.00 0.00 80 1013.9
20260503131349 84 211 1.0 2.0 0.00 0.00 0.00 90 1013.1
20260503130847 84 240 1.0 1.0 0.00 0.00 0.00 90 1012.8
20260503130344 83 279 3.0 6.0 0.00 0.00 0.00 91 1013.0